Lexington Weather

Lexington, Massachusetts, USA

57°F
12/4/2020 1:15pm 
  • Lexington Conditions: Partly cloudy
  • Temperature: 56.7°F / 13.7°CWarmer 2.7°F than last hour.
  • Dew Point: 35.6°FIncreased 0.9°Fsince last hour.
  • Relative Humidity: 45%Decreased 3.0% since last hour.
  • Wind: Wind from SW SW 3 mph, 10-min avg: 5 mph, gust: 11 mph
  • Barometer: 29.90 inFalling 0.02  inHg/hr Falling Slowly
  • Visibility: 10 miles
  • Rain Today: 0.00 in
  •   
Southeast Middlesex County - Winter Storm Watch
 - SEE ALL NEARBY ALERTS -

Regional Weather Roundup
for Boston / Norton, MA

        
000
ASUS41 KBOX 280004
RWRBOX

REGIONAL WEATHER ROUNDUP
NATIONAL WEATHER SERVICE BOSTON/NORTON MA
700 PM EST FRI NOV 27 2020

NOTE:  "FAIR" INDICATES FEW OR NO CLOUDS BELOW 12,000 FEET WITH NO 
SIGNIFICANT WEATHER AND/OR OBSTRUCTIONS TO VISIBILITY.

MAZALL-280100-
EASTERN MASSACHUSETTS
  
CITY           SKY/WX    TMP DP  RH WIND       PRES   REMARKS
BOSTON         CLOUDY    52  42  69 NW5       29.98S                  
6HR MIN TEMP:  52; 6HR MAX TEMP:  55;                                

BEVERLY        CLOUDY    51  46  83 NW5       29.97S                  
LAWRENCE       CLOUDY    50  45  83 CALM      29.99S                  
BEDFORD        CLOUDY    48  46  93 CALM      29.97S                  
BLUE HILL        N/A     49  45  86 NW6       29.96S                  
NORWOOD        CLOUDY    51  47  86 CALM      29.97F                  
MARSHFIELD     CLOUDY    52  52 100 CALM      29.97S                  
PLYMOUTH       CLOUDY    51  49  92 CALM      29.97S                  
TAUNTON        CLOUDY    51  49  92 CALM      29.97S                  
NEW BEDFORD    CLOUDY    52  51  97 CALM      29.97S                  
$$

MAZALL-280100-
CAPE COD AND THE ISLANDS
  
CITY           SKY/WX    TMP DP  RH WIND       PRES   REMARKS
FALMOUTH       CLOUDY    52  52 100 CALM      29.97S                  
HYANNIS        CLOUDY    51  50  96 CALM      29.96S                  
CHATHAM        CLOUDY    52  49  89 CALM      29.98S                  
NANTUCKET      PTCLDY    49  48  97 CALM      29.97F                  
MARTHAS VNYRD  CLOUDY    51  47  86 CALM      29.97F                  
$$
 
MAZALL-280100-
CENTRAL AND WESTERN MASSACHUSETTS
  
CITY           SKY/WX    TMP DP  RH WIND       PRES   REMARKS
WORCESTER      CLOUDY    49  40  71 NW7       29.97F                  
6HR MIN TEMP:  48; 6HR MAX TEMP:  51;                                

FITCHBURG      CLOUDY    46  44  93 CALM      29.98F                  
ORANGE         CLOUDY    46  45  96 CALM      29.98F                  
SPRINGFIELD    CLOUDY    47  47  97 CALM      29.96F                  
WESTFIELD      CLOUDY    47  44  90 CALM      29.97F                  
NORTH ADAMS    CLOUDY    47  39  74 CALM      29.98S                  
PITTSFIELD     CLOUDY    45  37  73 CALM      29.96F                  
$$
 
RIZALL-280100-
RHODE ISLAND
  
CITY           SKY/WX    TMP DP  RH WIND       PRES   REMARKS
PROVIDENCE     CLOUDY    53  47  79 CALM      29.97F                  
6HR MIN TEMP:  53; 6HR MAX TEMP:  59;                                

NEWPORT        CLOUDY    52  49  89 NE3       29.97S                  
BLOCK ISLAND   CLOUDY    51  50  96 SW5       29.98S                  
SMITHFIELD     CLOUDY    50  49  96 CALM      29.97F                  
WESTERLY       CLOUDY    52  48  86 N3        29.97S                  
$$
 
CTZALL-280100-
CONNECTICUT
  
CITY           SKY/WX    TMP DP  RH WIND       PRES   REMARKS
BRADLEY INTL   LGT RAIN  50  40  68 NW5       29.98F                  
6HR MIN TEMP:  50; 6HR MAX TEMP:  56; 6HR PCP: TRACE;                

HARTFORD       CLOUDY    53  40  61 N3        29.98F                  
BRIDGEPORT     CLOUDY    55  48  77 CALM      29.97S                  
DANBURY        CLOUDY    51  44  77 CALM      29.99S                  
GROTON         CLOUDY    52  50  93 NW3       29.97S                  
NEW HAVEN      CLOUDY    56  49  77 N5        29.97S                  
CHESTER        CLOUDY    52  48  87 CALM      29.97S                  
MERIDEN        CLOUDY    53  43  68 N6        29.98S                  
WILLIMANTIC    CLOUDY    50  47  89 NE3       29.98S                  
OXFORD         CLOUDY    50  45  83 NE3       29.98S                  
$$

MEZ002-015-021-024-NHZ003-005-008-011-012-014-VTZ005-008-280100-
NORTHERN NEW ENGLAND
  
CITY           SKY/WX    TMP DP  RH WIND       PRES   REMARKS
PORTLAND ME    CLOUDY    45  45 100 N3        29.95F                  
6HR MIN TEMP:  44; 6HR MAX TEMP:  49;                                

BANGOR ME      CLOUDY    45  43  93 CALM      29.96F                  
CONCORD NH     CLOUDY    48  37  65 NW7       29.97S                  
MANCHESTER NH  CLOUDY    50  38  63 SW3       29.96S                  
NASHUA NH      CLOUDY    45  45 100 CALM      29.98F                  
PORTSMOUTH NH  CLOUDY    48  41  75 SW5       29.95S                  
JAFFREY NH     CLOUDY    44  40  85 CALM      29.96F                  
KEENE NH       CLOUDY    44  43  96 CALM      29.98F                  
BURLINGTON VT  LGT RAIN  43  39  86 CALM      29.98F                  
MT. WASHINGTON NOT AVBL                                               
$$

NYZ052-076-280100-
EASTERN NEW YORK
  
CITY           SKY/WX    TMP DP  RH WIND       PRES   REMARKS
ALBANY         LGT RAIN  42  40  92 CALM      30.00S                  
6HR MIN TEMP:  40; 6HR MAX TEMP:  49; 6HR PCP: TRACE;                

NEW YORK CITY  MOCLDY    58  42  55 NW12      29.99R                  
6HR MIN TEMP:  58; 6HR MAX TEMP:  63;                                

$$
 
ANZALL-280100-
MARINE OBSERVATIONS
  
STATION/POSITION TIME  TEMP    WIND        PRES    VSBY  WAVE
                       AIR SEA DIR/SP/G                  HT/PER
                 (UTC) (F)     (DEG/KT/KT) (MB)    (MI)  (FT/S)
BOSTON BUOY      2340   51 50  270/  2/  4 1015.4R
BUZZARDS BAY     2300          240/  6/  6 1015.6F
NANTUCKET SOUND  2340      51  200/  2/  4   N/A
MASS BAY-STELLWA NOT AVBL
ISLE OF SHOALS   2300   52     270/ 11/ 11 1014.4R
S OF BLOCK IS    2326      57                N/A           5/ 8
$$

......................KEY.........................
  SKY/WX - SKY CONDITION/PRESENT WEATHER
  TMP    - TEMPERATURE IN FAHRENHEIT
  DWPT   - DEWPOINT IN FAHRENHEIT
  RH     - RELATIVE HUMIDITY IN PERCENT
  WIND   - DIRECTION AND SPEED IN MPH
  PRES   - MEAN SEA LEVEL PRESSURE IN INCHES OF HG
  WCI    - WIND CHILL INDEX
  VSB    - VISIBILITY IN MILES
  HX     - HEAT INDEX
  TC     - TEMPERATURE IN CELSIUS
  VRB    - VARIABLE WIND DIRECTION
  N/A    - NOT AVAILABLE
  
      

Other recent Regional Weather Roundups

Fri Dec 4, 1:04pm

Fri Dec 4, 12:04pm

Fri Dec 4, 11:04am

Fri Dec 4, 10:05am

Fri Dec 4, 9:04am

Fri Dec 4, 8:04am

Fri Dec 4, 7:04am

Fri Dec 4, 6:04am

Fri Dec 4, 5:04am

Fri Dec 4, 4:04am

Fri Dec 4, 3:04am

Fri Dec 4, 2:04am

Fri Dec 4, 1:04am

Fri Dec 4, 12:04am

Thu Dec 3, 11:04pm

Thu Dec 3, 10:04pm

Thu Dec 3, 9:04pm

Thu Dec 3, 8:04pm

Thu Dec 3, 7:04pm

Thu Dec 3, 6:04pm

Thu Dec 3, 5:04pm

Thu Dec 3, 4:05pm

Thu Dec 3, 3:04pm

Thu Dec 3, 2:04pm

Thu Dec 3, 1:04pm

Thu Dec 3, 12:04pm

Thu Dec 3, 11:04am

Thu Dec 3, 10:04am

Thu Dec 3, 9:04am

Thu Dec 3, 8:04am

Thu Dec 3, 7:04am

Thu Dec 3, 6:04am

Thu Dec 3, 5:04am

Thu Dec 3, 4:04am

Thu Dec 3, 3:04am

Thu Dec 3, 2:04am

Thu Dec 3, 1:04am

Thu Dec 3, 12:04am

Wed Dec 2, 11:04pm

Wed Dec 2, 10:04pm

Wed Dec 2, 9:04pm

Wed Dec 2, 8:04pm

Wed Dec 2, 7:04pm

Wed Dec 2, 6:05pm

Wed Dec 2, 5:04pm

Wed Dec 2, 4:05pm

Wed Dec 2, 3:05pm

Wed Dec 2, 2:04pm

Wed Dec 2, 1:04pm

Wed Dec 2, 12:04pm

Wed Dec 2, 11:04am

Wed Dec 2, 10:04am

Wed Dec 2, 9:05am

Wed Dec 2, 8:04am

Wed Dec 2, 7:04am

Wed Dec 2, 6:04am

Wed Dec 2, 5:04am

Wed Dec 2, 4:04am

Wed Dec 2, 3:04am

Wed Dec 2, 2:04am

Wed Dec 2, 1:04am

Wed Dec 2, 12:04am

Tue Dec 1, 11:04pm

Tue Dec 1, 10:04pm

Tue Dec 1, 9:04pm

Tue Dec 1, 8:04pm

Tue Dec 1, 7:04pm

Tue Dec 1, 6:05pm

Tue Dec 1, 5:04pm

Tue Dec 1, 4:05pm

Tue Dec 1, 3:04pm

Tue Dec 1, 2:04pm

Tue Dec 1, 12:04pm

Tue Dec 1, 11:04am

Tue Dec 1, 10:04am

Tue Dec 1, 9:04am

Tue Dec 1, 8:04am

Tue Dec 1, 7:04am

Tue Dec 1, 6:04am

Tue Dec 1, 5:05am

Tue Dec 1, 4:04am

Tue Dec 1, 3:04am

Tue Dec 1, 2:04am

Tue Dec 1, 1:04am

Tue Dec 1, 12:04am

Mon Nov 30, 11:04pm

Mon Nov 30, 10:04pm

Mon Nov 30, 9:04pm

Mon Nov 30, 8:04pm

Mon Nov 30, 7:05pm

Mon Nov 30, 6:04pm

Mon Nov 30, 5:05pm

Mon Nov 30, 4:04pm

Mon Nov 30, 3:05pm

Mon Nov 30, 2:05pm

Mon Nov 30, 1:04pm

Mon Nov 30, 12:05pm

Mon Nov 30, 11:04am

Mon Nov 30, 10:04am

Mon Nov 30, 9:04am

Mon Nov 30, 8:04am

Mon Nov 30, 7:05am

Mon Nov 30, 6:04am

Mon Nov 30, 5:05am

Mon Nov 30, 4:04am

Mon Nov 30, 3:04am

Mon Nov 30, 2:04am

Mon Nov 30, 1:04am

Mon Nov 30, 12:04am

Sun Nov 29, 11:04pm

Sun Nov 29, 10:04pm

Sun Nov 29, 9:04pm

Sun Nov 29, 8:04pm

Sun Nov 29, 7:04pm

Sun Nov 29, 6:04pm

Sun Nov 29, 5:04pm

Sun Nov 29, 4:05pm

Sun Nov 29, 3:04pm

Sun Nov 29, 2:04pm

Sun Nov 29, 1:04pm

Sun Nov 29, 12:04pm

Sun Nov 29, 11:04am

Sun Nov 29, 10:04am

Sun Nov 29, 9:04am

Sun Nov 29, 8:05am

Sun Nov 29, 7:04am

Sun Nov 29, 6:04am

Sun Nov 29, 5:04am

Sun Nov 29, 4:04am

Sun Nov 29, 3:04am

Sun Nov 29, 2:05am

Sun Nov 29, 1:04am

Sun Nov 29, 12:04am

Sat Nov 28, 11:04pm

Sat Nov 28, 10:04pm

Sat Nov 28, 9:04pm

Sat Nov 28, 8:04pm

Sat Nov 28, 7:04pm

Sat Nov 28, 6:04pm

Sat Nov 28, 5:04pm

Sat Nov 28, 4:04pm

Sat Nov 28, 3:04pm

Sat Nov 28, 2:04pm

Sat Nov 28, 1:04pm

Sat Nov 28, 12:04pm

Sat Nov 28, 11:04am

Sat Nov 28, 10:04am

Sat Nov 28, 9:04am

Sat Nov 28, 8:04am

Sat Nov 28, 7:04am

Sat Nov 28, 6:04am

Sat Nov 28, 5:04am

Sat Nov 28, 4:04am

Sat Nov 28, 3:05am

Sat Nov 28, 2:04am

Sat Nov 28, 1:04am

Sat Nov 28, 12:04am

Fri Nov 27, 11:05pm

Fri Nov 27, 10:04pm

Fri Nov 27, 9:04pm

Fri Nov 27, 8:04pm

Fri Nov 27, 6:04pm

Fri Nov 27, 5:04pm

Fri Nov 27, 4:05pm

Fri Nov 27, 3:05pm

Fri Nov 27, 2:05pm

Meta data:

ID: a8f1fb82-f09d-4a69-923f-0f110fe6b50d
Link: https://api.weather.gov/products/a8f1fb82-f09d-4a69-923f-0f110fe6b50d